Location: Del Amo
(33.8464°N, 118.2104°W)
Time: 02:17:21
(UTC+00:00)

SR - Pass Details

Date: 26 September 2024
Orbit: 578 x 855 km, 66.7° (Epoch: 02 October)

Event Time Altitude Azimuth Distance (km) Brightness Sun altitude
Rises 02:34:06 0° 349° (N) 3,002 ? -11.1°
Reaches altitude 10° 02:36:50 10° 5° (N) 2,136 ? -11.7°
Maximum altitude 02:40:34 22° 56° (NE) 1,557 ? -12.5°
Enters shadow 02:42:29 18° 85° (E) 1,763 ? -12.9°
Drops below altitude 10° 02:44:31 10° 106° (ESE) 2,271 - -13.3°
Sets 02:47:31 0° 121° (ESE) 3,247 - -13.9°
